Simultaneous Nadir Overpasses (SNOs) Predictions

Prediction of SNOs between AURA and NPP Satellite Orbit:

Table of predicted SNOs for the next 14.0 days since TLE Epoch: 4/9/2016
Index Date (AURA) Time (AURA) Lat,Lon (AURA) SZA (AURA ) Date (NPP) Time (NPP) Lat,Lon (NPP) SZA (NPP ) Distance(km) Time Diff (sec)
1 04/11/2016 19:09:00 79.29, 148.15 84.20 04/11/2016 19:08:46 79.28, 148.06 84.23 2.01 14
2 04/11/2016 19:58:19 -79.60, -42.08 96.28 04/11/2016 19:59:22 -79.61, -42.04 96.33 0.93 63
3 04/14/2016 10:36:07 -79.08, 95.08 96.48 04/14/2016 10:35:04 -79.07, 94.94 96.41 3.11 63
4 04/14/2016 11:25:24 79.42, -95.10 83.03 04/14/2016 11:25:38 79.42, -95.11 83.02 0.27 14
5 04/17/2016 02:52:29 -79.24,-148.01 97.68 04/17/2016 02:51:54 -79.25,-148.02 97.65 0.27 35
6 04/17/2016 03:41:46 79.58, 21.87 81.84 04/17/2016 03:42:28 79.59, 22.02 81.78 3.16 42
7 04/19/2016 19:08:54 -79.32, -31.64 98.72 04/19/2016 19:08:48 -79.31, -31.75 98.70 2.26 6
8 04/19/2016 19:58:11 79.65, 138.26 80.79 04/19/2016 19:59:22 79.65, 138.32 80.73 1.38 71
9 04/22/2016 10:35:56 79.21, -84.10 80.54 04/22/2016 10:35:01 79.21, -84.04 80.57 1.36 55




NCC Satellite Simultaneous Nadir Overpasses (SNOs) Prediction Service
